WE0DX-1 Weather Reports


Display with metric or nautical units.
time (UTC)temp
F
wind
direction
speed
MPH
gust
MPH
rain 1hr
in
rain 24hr
in
rain mn
in
humidity
%
barometer
mb
20240521093554 74 172 7.0 9.0 0.00 0.00 0.00 80 1003.0
20240521093053 73 144 7.0 11.0 0.00 0.00 0.00 81 1002.9
20240521092553 73 124 6.0 8.0 0.00 0.00 0.00 81 1003.1
20240521092051 74 159 5.0 7.0 0.00 0.00 0.00 81 1003.2
20240521091548 74 126 6.0 11.0 0.00 0.00 0.00 81 1003.1
20240521091047 74 131 6.0 9.0 0.00 0.00 0.00 81 1003.1
20240521090545 74 118 6.0 10.0 0.00 0.00 0.00 81 1003.2
20240521090044 74 129 7.0 9.0 0.00 0.00 0.00 80 1003.2
20240521085542 74 111 9.0 14.0 0.00 0.00 0.00 80 1003.2
20240521085040 74 175 5.0 13.0 0.00 0.00 0.00 80 1003.3
20240521084539 74 122 2.0 7.0 0.00 0.00 0.00 80 1003.4
20240521084037 74 169 4.0 11.0 0.00 0.00 0.00 80 1003.6
20240521083537 74 118 3.0 8.0 0.00 0.00 0.00 79 1003.5
20240521083036 75 66 2.0 8.0 0.00 0.00 0.00 79 1003.6
20240521082533 75 87 6.0 13.0 0.00 0.00 0.00 79 1003.4
20240521082031 75 149 4.0 8.0 0.00 0.00 0.00 79 1003.9
20240521081531 75 110 3.0 10.0 0.00 0.00 0.00 78 1004.0
20240521081029 75 103 3.0 9.0 0.00 0.00 0.00 78 1003.8
20240521080528 75 115 2.0 9.0 0.00 0.00 0.00 79 1003.8
20240521080027 75 141 4.0 7.0 0.00 0.00 0.00 79 1004.0
20240521075525 75 122 4.0 8.0 0.00 0.00 0.00 79 1003.8
20240521075024 75 163 5.0 9.0 0.00 0.00 0.00 78 1004.0
20240521074522 74 81 3.0 10.0 0.00 0.00 0.00 79 1004.2
20240521074021 74 150 4.0 11.0 0.00 0.00 0.00 79 1004.1
20240521073521 74 165 5.0 7.0 0.00 0.00 0.00 79 1004.3
20240521073020 74 128 2.0 11.0 0.00 0.00 0.00 78 1004.2
20240521072519 74 122 2.0 8.0 0.00 0.00 0.00 78 1004.3
20240521072019 74 101 3.0 9.0 0.00 0.00 0.00 78 1004.4
20240521071517 74 155 8.0 9.0 0.00 0.00 0.00 78 1004.6
20240521071017 74 60 4.0 10.0 0.00 0.00 0.00 78 1004.6
20240521070516 74 103 2.0 5.0 0.00 0.00 0.00 78 1004.5
20240521070013 75 141 5.0 8.0 0.00 0.00 0.00 78 1005.1
20240521065512 75 155 5.0 6.0 0.00 0.00 0.00 77 1005.0
20240521065010 75 120 4.0 8.0 0.00 0.00 0.00 77 1004.9
20240521064508 75 226 4.0 8.0 0.00 0.00 0.00 77 1005.1
20240521064007 75 116 3.0 6.0 0.00 0.00 0.00 76 1005.0
20240521063506 75 94 4.0 9.0 0.00 0.00 0.00 75 1004.9
20240521063005 75 140 3.0 6.0 0.00 0.00 0.00 75 1005.1
20240521062503 75 179 3.0 8.0 0.00 0.00 0.00 75 1005.0
20240521062003 75 116 3.0 9.0 0.00 0.00 0.00 75 1004.9
20240521061502 75 146 5.0 6.0 0.00 0.00 0.00 75 1004.9
20240521061000 75 55 4.0 7.0 0.00 0.00 0.00 75 1005.1
20240521060456 75 84 2.0 7.0 0.00 0.00 0.00 75 1005.2
20240521055955 75 158 2.0 7.0 0.00 0.00 0.00 74 1005.2
20240521055454 75 156 4.0 7.0 0.00 0.00 0.00 74 1005.4
20240521054953 75 98 2.0 3.0 0.00 0.00 0.00 74 1005.4
20240521054452 75 95 2.0 6.0 0.00 0.00 0.00 74 1005.5
20240521053951 75 101 2.0 5.0 0.00 0.00 0.00 74 1005.5
20240521053451 75 79 1.0 3.0 0.00 0.00 0.00 74 1005.4
20240521052950 75 103 1.0 6.0 0.00 0.00 0.00 74 1005.2
20240521052448 75 133 2.0 8.0 0.00 0.00 0.00 73 1005.5
20240521051946 75 83 2.0 7.0 0.00 0.00 0.00 73 1005.5
20240521051444 75 125 3.0 6.0 0.00 0.00 0.00 74 1005.5
20240521050944 75 96 2.0 6.0 0.00 0.00 0.00 74 1005.7
20240521050442 75 70 2.0 5.0 0.00 0.00 0.00 74 1005.8
20240521045942 75 88 2.0 6.0 0.00 0.09 0.09 74 1005.7
20240521045441 75 20 6.0 8.0 0.00 0.09 0.09 73 1005.8
20240521044940 75 119 2.0 3.0 0.00 0.09 0.09 73 1005.9
20240521044438 75 77 2.0 5.0 0.00 0.09 0.09 72 1005.9
20240521043936 76 115 7.0 10.0 0.00 0.09 0.09 72 1005.7
20240521043436 76 102 4.0 5.0 0.00 0.09 0.09 73 1005.9
20240521042935 76 69 2.0 8.0 0.00 0.09 0.09 72 1006.2
20240521042434 76 101 5.0 7.0 0.00 0.09 0.09 72 1006.4
20240521041933 76 86 1.0 7.0 0.00 0.09 0.09 72 1006.4
20240521041431 76 46 5.0 7.0 0.00 0.09 0.09 72 1006.2
20240521040930 76 95 5.0 7.0 0.00 0.09 0.09 72 1006.4
20240521040430 76 95 2.0 7.0 0.00 0.09 0.09 72 1006.7
20240521035928 76 120 2.0 10.0 0.00 0.09 0.09 72 1006.7
20240521035426 76 140 5.0 7.0 0.00 0.09 0.09 71 1006.8
20240521034924 76 125 3.0 3.0 0.00 0.09 0.09 72 1006.9
20240521034423 76 162 4.0 7.0 0.00 0.09 0.09 72 1006.7
20240521033922 76 134 3.0 6.0 0.00 0.09 0.09 72 1006.8
20240521033421 76 166 5.0 8.0 0.00 0.09 0.09 72 1006.8
20240521032921 76 114 3.0 6.0 0.00 0.09 0.09 72 1006.7
20240521032419 76 104 4.0 5.0 0.00 0.09 0.09 72 1006.6
20240521031918 76 154 5.0 9.0 0.00 0.09 0.09 72 1006.7
20240521031417 76 105 1.0 6.0 0.00 0.09 0.09 72 1006.6
20240521030916 77 133 3.0 5.0 0.00 0.09 0.09 72 1006.7
20240521030414 77 114 2.0 8.0 0.00 0.09 0.09 72 1006.7
20240521025913 77 111 2.0 10.0 0.00 0.09 0.09 72 1006.6
20240521025411 77 106 2.0 8.0 0.00 0.09 0.09 72 1006.5
20240521024909 76 157 4.0 7.0 0.00 0.09 0.09 73 1006.5
20240521024409 76 143 2.0 6.0 0.00 0.09 0.09 73 1006.8
20240521023907 76 141 3.0 8.0 0.00 0.09 0.09 74 1006.6
20240521023407 76 183 3.0 5.0 0.00 0.09 0.09 74 1006.7
20240521022905 76 69 1.0 6.0 0.00 0.09 0.09 75 1006.5
20240521022404 76 140 4.0 7.0 0.00 0.09 0.09 75 1006.5
20240521021903 76 129 1.0 2.0 0.00 0.09 0.09 76 1006.6
20240521021359 77 99 3.0 5.0 0.00 0.09 0.09 75 1006.6
20240521020857 77 74 1.0 6.0 0.00 0.09 0.09 75 1006.4
20240521020357 77 87 2.0 6.0 0.00 0.09 0.09 74 1006.4
20240521015854 77 94 4.0 6.0 0.00 0.09 0.09 74 1006.5
20240521015352 77 122 2.0 10.0 0.00 0.09 0.09 75 1006.4
20240521014851 77 132 3.0 8.0 0.00 0.09 0.09 75 1006.6
20240521014350 78 93 3.0 5.0 0.00 0.09 0.09 74 1006.3
20240521013848 78 104 2.0 6.0 0.00 0.09 0.09 74 1006.4
20240521013347 78 96 2.0 6.0 0.00 0.09 0.09 73 1006.6
20240521012843 78 111 5.0 8.0 0.00 0.09 0.09 73 1006.6
20240521012342 78 135 3.0 6.0 0.00 0.09 0.09 73 1006.8
20240521011840 78 153 7.0 8.0 0.00 0.09 0.09 72 1006.5
20240521011338 78 84 2.0 3.0 0.00 0.09 0.09 73 1006.8
20240521010837 79 85 0.0 2.0 0.00 0.09 0.09 72 1006.8
20240521010335 79 98 2.0 3.0 0.00 0.09 0.09 71 1006.6
20240521005835 79 126 2.0 3.0 0.00 0.09 0.09 70 1007.0
20240521005334 79 127 3.0 5.0 0.00 0.09 0.09 70 1006.9
20240521004832 79 105 3.0 3.0 0.00 0.09 0.09 69 1006.6
20240521004331 79 115 3.0 7.0 0.00 0.09 0.09 68 1007.0
20240521003829 79 103 1.0 3.0 0.00 0.09 0.09 69 1006.9
20240521003328 79 92 5.0 7.0 0.00 0.09 0.09 68 1007.1
20240521002827 79 166 4.0 6.0 0.00 0.09 0.09 68 1007.1
20240521002326 79 126 3.0 5.0 0.00 0.09 0.09 68 1006.8
20240521001824 79 178 3.0 6.0 0.00 0.09 0.09 68 1007.1
20240521001324 80 128 1.0 5.0 0.00 0.09 0.09 68 1006.9
20240521000823 80 125 3.0 8.0 0.00 0.09 0.09 68 1007.0
20240521000323 80 125 3.0 5.0 0.00 0.09 0.09 68 1006.9
20240520235821 80 101 1.0 3.0 0.00 0.09 0.09 68 1007.1
20240520235320 80 130 3.0 8.0 0.00 0.09 0.09 68 1006.9
20240520234820 80 194 3.0 7.0 0.00 0.09 0.09 67 1006.9
20240520234318 80 111 3.0 5.0 0.00 0.09 0.09 67 1007.3
20240520233817 80 155 2.0 5.0 0.00 0.09 0.09 67 1007.0
20240520233317 80 73 2.0 6.0 0.00 0.09 0.09 67 1007.1
20240520232816 80 95 3.0 5.0 0.00 0.09 0.09 67 1007.0
20240520232315 80 88 3.0 5.0 0.00 0.09 0.09 67 1007.3
20240520231814 80 131 2.0 6.0 0.00 0.09 0.09 66 1007.5
20240520231313 80 98 3.0 9.0 0.00 0.09 0.09 66 1007.4
20240520230813 80 129 3.0 9.0 0.00 0.09 0.09 65 1007.4
20240520230312 80 143 6.0 8.0 0.00 0.09 0.09 66 1007.3
20240520225810 80 157 4.0 5.0 0.00 0.09 0.09 66 1007.5
20240520225311 81 105 3.0 9.0 0.00 0.09 0.09 65 1007.6
20240520224809 81 136 3.0 6.0 0.00 0.09 0.09 65 1007.4
20240520224308 82 106 2.0 3.0 0.00 0.09 0.09 64 1007.5
20240520223807 82 48 1.0 3.0 0.00 0.09 0.09 63 1007.5
20240520223308 81 173 2.0 3.0 0.00 0.09 0.09 64 1007.6
20240520222807 81 106 1.0 2.0 0.00 0.09 0.09 64 1007.6
20240520222306 81 168 1.0 3.0 0.00 0.09 0.09 64 1007.5
20240520221805 81 21 1.0 1.0 0.00 0.09 0.09 64 1007.5
20240520221304 81 137 1.0 2.0 0.00 0.09 0.09 63 1007.7
20240520220802 81 97 1.0 1.0 0.00 0.09 0.09 62 1007.6
20240520220301 82 170 1.0 2.0 0.00 0.09 0.09 62 1007.7
20240520215800 82 169 3.0 3.0 0.00 0.09 0.09 61 1007.7
20240520215258 82 151 2.0 5.0 0.00 0.09 0.09 60 1007.6
20240520214757 82 89 2.0 5.0 0.00 0.09 0.09 60 1007.6
20240520214256 82 154 1.0 3.0 0.00 0.09 0.09 60 1007.6
20240520213756 82 154 1.0 5.0 0.00 0.09 0.09 60 1007.7
20240520213256 83 70 1.0 5.0 0.00 0.09 0.09 59 1007.5
20240520212755 83 104 1.0 9.0 0.00 0.09 0.09 57 1007.6
20240520212254 83 64 1.0 2.0 0.00 0.09 0.09 58 1007.7
20240520211753 83 119 1.0 3.0 0.00 0.09 0.09 56 1007.7
20240520211252 83 132 1.0 7.0 0.00 0.09 0.09 56 1007.6
20240520210750 84 229 2.0 5.0 0.00 0.09 0.09 54 1007.7
20240520210250 84 77 0.0 6.0 0.00 0.09 0.09 55 1007.9
20240520205749 84 211 3.0 5.0 0.00 0.09 0.09 53 1007.6
20240520205249 84 163 2.0 3.0 0.00 0.09 0.09 54 1007.7
20240520204748 85 181 3.0 8.0 0.00 0.09 0.09 53 1007.8
20240520204248 85 159 2.0 2.0 0.00 0.09 0.09 52 1007.9
20240520203745 84 127 0.0 7.0 0.00 0.09 0.09 53 1007.9
20240520203243 85 181 2.0 2.0 0.00 0.09 0.09 54 1008.1
20240520202743 84 144 2.0 3.0 0.00 0.09 0.09 52 1008.1
20240520202242 84 218 2.0 2.0 0.00 0.09 0.09 53 1008.1
20240520201740 84 139 1.0 2.0 0.00 0.09 0.09 52 1008.3
20240520201240 84 276 1.0 2.0 0.00 0.09 0.09 53 1008.2
20240520200739 84 191 2.0 2.0 0.00 0.09 0.09 52 1008.3
20240520200237 84 184 2.0 3.0 0.00 0.09 0.09 53 1008.4
20240520195736 84 305 1.0 2.0 0.00 0.09 0.09 53 1008.4
20240520195235 83 16 1.0 6.0 0.00 0.09 0.09 53 1008.3
20240520194734 84 117 3.0 10.0 0.00 0.09 0.09 53 1008.5
20240520194234 84 174 4.0 5.0 0.00 0.09 0.09 55 1008.4
20240520193733 84 167 1.0 6.0 0.00 0.09 0.09 54 1008.5
20240520193231 84 118 3.0 6.0 0.00 0.09 0.09 53 1008.4
20240520192731 84 65 3.0 5.0 0.00 0.09 0.09 53 1008.6
20240520192229 84 103 0.0 0.0 0.00 0.09 0.09 54 1008.7
20240520191728 83 19 1.0 1.0 0.00 0.09 0.09 55 1008.7
20240520191225 83 118 0.0 2.0 0.00 0.09 0.09 54 1008.7
20240520190725 83 166 3.0 7.0 0.00 0.09 0.09 53 1008.8
20240520190224 83 104 2.0 3.0 0.00 0.09 0.09 54 1009.0
20240520185719 83 192 2.0 3.0 0.00 0.09 0.09 54 1008.9
20240520185218 82 174 1.0 6.0 0.00 0.09 0.09 53 1009.0
20240520184718 82 174 2.0 3.0 0.00 0.09 0.09 53 1009.0
20240520184216 82 198 2.0 5.0 0.00 0.09 0.09 53 1009.2
20240520183715 82 91 1.0 6.0 0.00 0.09 0.09 53 1009.3
20240520183213 82 118 5.0 7.0 0.00 0.09 0.09 54 1009.3
20240520182712 82 102 1.0 2.0 0.00 0.09 0.09 54 1009.5
20240520182211 81 96 0.0 1.0 0.00 0.09 0.09 54 1009.8
20240520181710 80 58 0.0 0.0 0.00 0.09 0.09 57 1009.6
20240520181208 79 95 0.0 1.0 0.00 0.09 0.09 58 1009.8
20240520180706 79 100 0.0 2.0 0.00 0.09 0.09 62 1009.8
20240520180207 80 128 1.0 1.0 0.00 0.09 0.09 61 1009.9
20240520175705 80 120 0.0 1.0 0.00 0.09 0.09 61 1010.0
20240520175204 80 126 1.0 3.0 0.00 0.09 0.09 59 1009.9
20240520174703 79 154 0.0 2.0 0.00 0.09 0.09 61 1010.0
20240520174202 80 110 1.0 2.0 0.00 0.09 0.09 62 1010.4
20240520173702 79 135 2.0 3.0 0.00 0.09 0.09 63 1010.5
20240520173200 80 108 0.0 5.0 0.00 0.09 0.09 64 1010.5
20240520172659 79 114 0.0 3.0 0.00 0.09 0.09 61 1010.5
20240520172144 78 81 0.0 1.0 0.00 0.09 0.09 62 1010.2
20240520171642 77 135 1.0 1.0 0.00 0.09 0.09 63 1010.2
20240520171141 78 115 0.0 1.0 0.00 0.09 0.09 63 1010.1
20240520170640 77 88 0.0 1.0 0.00 0.09 0.09 63 1010.1
20240520170139 77 99 0.0 1.0 0.00 0.09 0.09 64 1010.2
20240520165638 76 124 1.0 1.0 0.00 0.09 0.09 65 1009.9
20240520165136 75 69 0.0 1.0 0.00 0.09 0.09 67 1009.7
20240520164634 75 96 0.0 1.0 0.00 0.09 0.09 67 1009.8
20240520164132 75 64 1.0 1.0 0.00 0.09 0.09 67 1010.1
20240520163631 75 121 1.0 1.0 0.00 0.09 0.09 66 1009.9
20240520163129 75 109 0.0 1.0 0.00 0.09 0.09 66 1009.8
20240520162627 76 69 0.0 1.0 0.00 0.09 0.09 64 1009.5
20240520162125 76 65 1.0 3.0 0.00 0.09 0.09 63 1009.6
20240520161554 77 122 1.0 2.0 0.00 0.09 0.09 64 1010.0
20240520161052 77 97 0.0 2.0 0.00 0.09 0.09 63 1009.8
20240520160550 77 169 1.0 3.0 0.00 0.09 0.09 62 1009.9
20240520160050 77 220 2.0 3.0 0.00 0.09 0.09 61 1010.0
20240520155547 78 143 1.0 3.0 0.00 0.09 0.09 60 1010.0
20240520155043 79 115 0.0 3.0 0.00 0.09 0.09 60 1009.6
20240520154543 78 157 2.0 5.0 0.00 0.09 0.09 61 1009.9
20240520154042 77 283 2.0 3.0 0.00 0.09 0.09 61 1009.7
20240520153540 77 148 1.0 3.0 0.00 0.09 0.09 60 1009.7
20240520153039 77 177 1.0 3.0 0.00 0.09 0.09 61 1009.6
20240520152538 77 136 2.0 5.0 0.00 0.09 0.09 65 1009.7
20240520152038 77 121 2.0 8.0 0.00 0.09 0.09 63 1009.4
20240520151537 76 119 4.0 5.0 0.00 0.09 0.09 63 1009.4
20240520151033 76 90 0.0 5.0 0.00 0.09 0.09 68 1009.4
20240520150532 77 141 2.0 6.0 0.00 0.09 0.09 67 1009.0
20240520150031 76 107 1.0 5.0 0.00 0.09 0.09 66 1009.0
20240520145530 75 85 2.0 6.0 0.00 0.09 0.09 67 1008.9
20240520145029 77 125 3.0 7.0 0.00 0.09 0.09 68 1008.8
20240520144528 75 161 2.0 3.0 0.00 0.09 0.09 69 1008.6
20240520144027 75 133 2.0 5.0 0.00 0.09 0.09 69 1008.9
20240520143524 76 139 3.0 6.0 0.00 0.09 0.09 69 1009.3
20240520143023 75 126 1.0 5.0 0.00 0.09 0.09 70 1009.4
20240520142522 75 114 1.0 3.0 0.00 0.09 0.09 71 1009.3
20240520142023 75 103 2.0 3.0 0.00 0.09 0.09 68 1009.4
20240520141447 74 98 1.0 2.0 0.00 0.09 0.09 73 1009.4
20240520140946 74 120 2.0 2.0 0.00 0.09 0.09 71 1009.3
20240520140444 73 86 0.0 2.0 0.00 0.09 0.09 74 1009.4
20240520135944 73 157 2.0 3.0 0.00 0.09 0.09 74 1009.2
20240520135442 72 121 2.0 5.0 0.00 0.09 0.09 78 1009.2
20240520134941 71 149 3.0 6.0 0.00 0.09 0.09 77 1009.4
20240520134440 71 139 4.0 6.0 0.00 0.09 0.09 78 1009.4
20240520133938 70 107 1.0 2.0 0.00 0.09 0.09 80 1009.4
20240520133437 69 72 3.0 6.0 0.00 0.09 0.09 81 1009.3
20240520132935 70 131 2.0 3.0 0.00 0.09 0.09 83 1009.3
20240520132433 70 70 1.0 2.0 0.00 0.09 0.09 83 1009.4
20240520131932 69 102 1.0 2.0 0.00 0.09 0.09 87 1009.3
20240520131431 68 77 1.0 2.0 0.00 0.09 0.09 87 1009.6
20240520130931 67 68 1.0 2.0 0.00 0.09 0.09 88 1009.4
20240520130429 67 76 1.0 2.0 0.00 0.09 0.09 90 1009.3
20240520125928 67 66 0.0 1.0 0.00 0.09 0.09 91 1009.3
20240520125427 66 65 0.0 1.0 0.00 0.09 0.09 90 1009.3
20240520124925 66 65 0.0 0.0 0.00 0.09 0.09 91 1009.3
20240520124424 65 65 0.0 0.0 0.00 0.09 0.09 92 1009.3
20240520123923 65 65 0.0 0.0 0.00 0.09 0.09 93 1009.3
20240520123421 64 65 0.0 0.0 0.00 0.09 0.09 94 1009.0
20240520122919 64 65 0.0 0.0 0.00 0.09 0.09 95 1009.3
20240520122417 64 65 0.0 0.0 0.00 0.09 0.09 95 1009.3
20240520121916 64 65 0.0 0.0 0.00 0.09 0.09 95 1009.0
20240520121414 64 65 0.0 0.0 0.00 0.09 0.09 95 1009.2
20240520120913 63 65 1.0 1.0 0.00 0.09 0.09 94 1009.4
20240520120409 63 64 0.0 1.0 0.00 0.09 0.09 94 1009.2
20240520115907 63 65 0.0 0.0 0.00 0.09 0.09 93 1008.9
20240520115403 63 64 0.0 0.0 0.00 0.09 0.09 93 1009.0
20240520114902 64 64 0.0 0.0 0.00 0.09 0.09 93 1008.7
20240520114401 64 64 0.0 0.0 0.00 0.09 0.09 91 1008.4
20240520113900 64 66 0.0 0.0 0.00 0.09 0.09 91 1008.3
20240520113358 64 66 0.0 0.0 0.00 0.09 0.09 91 1008.2
20240520112857 64 66 0.0 0.0 0.00 0.09 0.09 91 1007.9
20240520112355 63 66 0.0 0.0 0.00 0.09 0.09 93 1007.8
20240520111855 63 65 0.0 0.0 0.00 0.09 0.09 93 1007.8
20240520111352 63 68 0.0 0.0 0.00 0.09 0.09 94 1007.8
20240520110851 63 81 0.0 0.0 0.00 0.09 0.09 94 1007.7
20240520110350 63 66 0.0 0.0 0.00 0.09 0.09 93 1007.6
20240520105848 63 71 1.0 1.0 0.00 0.09 0.09 93 1007.7
20240520105347 63 90 0.0 2.0 0.00 0.09 0.09 93 1007.7
20240520104845 64 81 0.0 0.0 0.00 0.09 0.09 92 1007.7
20240520104344 64 88 0.0 0.0 0.00 0.09 0.09 91 1007.7
20240520103843 64 74 0.0 1.0 0.00 0.09 0.09 92 1007.8
20240520103341 64 68 0.0 1.0 0.00 0.09 0.09 92 1007.3
20240520102840 63 71 1.0 1.0 0.00 0.09 0.09 92 1007.4
20240520102338 64 66 0.0 0.0 0.00 0.09 0.09 92 1007.7
20240520101836 64 67 0.0 0.0 0.00 0.09 0.09 92 1007.9
20240520101334 63 73 0.0 0.0 0.00 0.09 0.09 92 1007.4
20240520100826 63 73 0.0 0.0 0.00 0.09 0.09 93 1007.6
20240520100324 63 78 0.0 0.0 0.00 0.09 0.09 93 1007.3
20240520095824 63 82 0.0 0.0 0.00 0.09 0.09 94 1007.2
20240520095323 63 82 0.0 0.0 0.00 0.09 0.09 94 1007.1
20240520094822 64 85 0.0 1.0 0.00 0.09 0.09 92 1007.1
20240520094322 63 95 0.0 0.0 0.00 0.09 0.09 91 1007.1
20240520093821 64 95 0.0 0.0 0.00 0.09 0.09 92 1007.1